Cairo, IL

2:03 AM CST on February 27, 2017 (GMT -0600)
Cairo Regional

Weather History for KCIR - December, 2011

Change the Weather History Date:

Friday, December 30, 2011

  Actual Average Record
Temperature  
Mean Temperature 54 °F -  
Max Temperature 59 °F 43 °F 68 °F (1951)
Min Temperature 48 °F 29 °F 4 °F (1983)
Degree Days  
Heating Degree Days 12    
Growing Degree Days 4 (Base 50)    
Moisture  
Dew Point 43 °F    
Average Humidity 71    
Maximum Humidity 87    
Minimum Humidity 48    
Precipitation  
Precipitation 0.00 in - - ()
Sea Level Pressure  
Sea Level Pressure 29.76 in    
Wind  
Wind Speed 12 mph (SSW)    
Max Wind Speed 21 mph    
Max Gust Speed 30 mph    
Visibility 10 miles    
Events      
Averages and records for this station are not official NWS values.
T = Trace of Precipitation, MM = Missing Value Source: NWS Daily Summary

Daily Weather History Graph

Daily Weather History Graph

Search for Another Location

Airport or City:

Trip Planner

Search our weather history database for the weather conditions in past years. The results will help you decide how hot, cold, wet, or windy it might be!

Date:

Astronomy

Dec. 30, 2011 Rise Set
Actual Time 7:09 AM CST 4:48 PM CST
Civil Twilight 6:40 AM CST 5:17 PM CST
Nautical Twilight 6:08 AM CST 5:50 PM CST
Astronomical Twilight 5:36 AM CST 6:22 PM CST
Moon 10:38 AM CST (12/30) 11:14 PM CST (12/30)
Length of Visible Light 10h 37m
Length of Day
9h 39m
Waxing Crescent, 36% of the Moon is Illuminated
Dec 30
Waxing Crescent
Jan 1
First Quarter
Jan 9
Full
Jan 16
Last Quarter
Jan 23
New

Hourly Weather History & Observations

Time (CST) Temp. Windchill Dew Point Humidity Pressure Visibility Wind Dir Wind Speed Gust Speed Precip Events Conditions
12:15 AM 50.0 °F - 42.8 °F 76% 29.83 in 10.0 mi South 6.9 mph - N/A   Scattered Clouds
12:35 AM 50.0 °F - 44.6 °F 82% 29.83 in 10.0 mi South 5.8 mph - N/A   Mostly Cloudy
12:55 AM 48.2 °F - 42.8 °F 82% 29.83 in 10.0 mi South 5.8 mph - N/A   Mostly Cloudy
1:15 AM 48.2 °F - 44.6 °F 87% 29.81 in 10.0 mi South 6.9 mph - N/A   Scattered Clouds
1:35 AM 48.2 °F - 44.6 °F 87% 29.80 in 10.0 mi South 10.4 mph - N/A   Scattered Clouds
1:55 AM 48.2 °F - 44.6 °F 87% 29.80 in 10.0 mi South 9.2 mph - N/A   Clear
2:35 AM 50.0 °F - 44.6 °F 82% 29.80 in 10.0 mi South 10.4 mph - N/A   Clear
2:55 AM 48.2 °F - 44.6 °F 87% 29.81 in 10.0 mi South 8.1 mph - N/A   Clear
3:15 AM 48.2 °F - 44.6 °F 87% 29.79 in 10.0 mi South 8.1 mph - N/A   Clear
4:15 AM 50.0 °F - 46.4 °F 87% 29.77 in 10.0 mi South 10.4 mph - N/A   Overcast
4:35 AM 50.0 °F - 46.4 °F 87% 29.75 in 10.0 mi South 11.5 mph - N/A   Mostly Cloudy
4:55 AM 48.2 °F - 44.6 °F 87% 29.74 in 10.0 mi SSE 11.5 mph - N/A   Mostly Cloudy
5:15 AM 48.2 °F - 44.6 °F 87% 29.73 in 10.0 mi SSE 11.5 mph 17.3 mph N/A   Mostly Cloudy
5:35 AM 48.2 °F - 44.6 °F 87% 29.74 in 10.0 mi South 11.5 mph 17.3 mph N/A   Scattered Clouds
5:55 AM 50.0 °F - 44.6 °F 82% 29.73 in 10.0 mi South 10.4 mph - N/A   Mostly Cloudy
6:15 AM 50.0 °F - 44.6 °F 82% 29.73 in 10.0 mi South 12.7 mph - N/A   Overcast
6:35 AM 50.0 °F - 46.4 °F 87% 29.73 in 10.0 mi South 11.5 mph 16.1 mph N/A   Overcast
6:55 AM 50.0 °F - 46.4 °F 87% 29.74 in 10.0 mi SSW 13.8 mph 26.5 mph N/A   Overcast
7:15 AM 50.0 °F - 46.4 °F 87% 29.73 in 10.0 mi SSW 15.0 mph 21.9 mph N/A   Scattered Clouds
7:35 AM 51.8 °F - 46.4 °F 82% 29.73 in 10.0 mi SSW 16.1 mph 25.3 mph N/A   Clear
7:55 AM 51.8 °F - 46.4 °F 82% 29.73 in 10.0 mi SSW 16.1 mph 24.2 mph N/A   Clear
8:15 AM 51.8 °F - 46.4 °F 82% 29.73 in 10.0 mi SW 18.4 mph 25.3 mph N/A   Clear
8:35 AM 53.6 °F - 46.4 °F 77% 29.74 in 10.0 mi SSW 17.3 mph 26.5 mph N/A   Clear
8:55 AM 53.6 °F - 46.4 °F 77% 29.75 in 10.0 mi SW 17.3 mph 27.6 mph N/A   Clear
9:15 AM 53.6 °F - 46.4 °F 77% 29.75 in 10.0 mi SW 19.6 mph 28.8 mph N/A   Scattered Clouds
9:35 AM 53.6 °F - 46.4 °F 77% 29.75 in 10.0 mi SW 17.3 mph 26.5 mph N/A   Clear
9:55 AM 53.6 °F - 44.6 °F 72% 29.75 in 10.0 mi SW 15.0 mph 26.5 mph N/A   Clear
10:15 AM 53.6 °F - 44.6 °F 72% 29.76 in 10.0 mi SSW 17.3 mph 24.2 mph N/A   Clear
10:35 AM 53.6 °F - 44.6 °F 72% 29.76 in 10.0 mi SW 13.8 mph 19.6 mph N/A   Clear
10:55 AM 53.6 °F - 42.8 °F 67% 29.75 in 10.0 mi SW 15.0 mph 27.6 mph N/A   Clear
11:15 AM 53.6 °F - 42.8 °F 67% 29.75 in 10.0 mi SW 17.3 mph 21.9 mph N/A   Clear
11:35 AM 53.6 °F - 42.8 °F 67% 29.74 in 10.0 mi SW 15.0 mph 21.9 mph N/A   Clear
11:55 AM 55.4 °F - 42.8 °F 63% 29.73 in 10.0 mi SW 15.0 mph 23.0 mph N/A   Clear
12:15 PM 55.4 °F - 42.8 °F 63% 29.73 in 10.0 mi SW 15.0 mph 24.2 mph N/A   Clear
12:35 PM 55.4 °F - 42.8 °F 63% 29.73 in 10.0 mi SW 17.3 mph 29.9 mph N/A   Clear
12:55 PM 57.2 °F - 42.8 °F 59% 29.73 in 10.0 mi SW 19.6 mph 25.3 mph N/A   Clear
1:15 PM 57.2 °F - 42.8 °F 59% 29.73 in 10.0 mi SW 20.7 mph 29.9 mph N/A   Clear
1:35 PM 57.2 °F - 42.8 °F 59% 29.73 in 10.0 mi SW 19.6 mph 27.6 mph N/A   Clear
1:55 PM 57.2 °F - 42.8 °F 59% 29.74 in 10.0 mi SW 18.4 mph 23.0 mph N/A   Clear
2:15 PM 59.0 °F - 42.8 °F 55% 29.74 in 10.0 mi SW 17.3 mph 23.0 mph N/A   Clear
2:35 PM 59.0 °F - 42.8 °F 55% 29.74 in 10.0 mi SW 17.3 mph 21.9 mph N/A   Clear
2:55 PM 59.0 °F - 41.0 °F 51% 29.75 in 10.0 mi SW 17.3 mph 24.2 mph N/A   Clear
3:15 PM 59.0 °F - 41.0 °F 51% 29.75 in 10.0 mi SW 18.4 mph 27.6 mph N/A   Clear
3:35 PM 59.0 °F - 41.0 °F 51% 29.76 in 10.0 mi SW 15.0 mph 24.2 mph N/A   Clear
3:55 PM 59.0 °F - 39.2 °F 48% 29.76 in 10.0 mi SW 12.7 mph 24.2 mph N/A   Clear
4:15 PM 57.2 °F - 39.2 °F 51% 29.77 in 10.0 mi SW 11.5 mph 18.4 mph N/A   Clear
4:35 PM 57.2 °F - 39.2 °F 51% 29.77 in 10.0 mi SW 10.4 mph 17.3 mph N/A   Clear
4:55 PM 55.4 °F - 39.2 °F 54% 29.78 in 10.0 mi SW 10.4 mph - N/A   Clear
5:15 PM 55.4 °F - 37.4 °F 51% 29.79 in 10.0 mi SW 9.2 mph - N/A   Clear
5:35 PM 53.6 °F - 37.4 °F 54% 29.80 in 10.0 mi SW 9.2 mph - N/A   Clear
5:55 PM 53.6 °F - 37.4 °F 54% 29.81 in 10.0 mi SW 9.2 mph - N/A   Clear
6:15 PM 51.8 °F - 37.4 °F 58% 29.82 in 10.0 mi WSW 6.9 mph - N/A   Clear
6:35 PM 51.8 °F - 35.6 °F 54% 29.83 in 10.0 mi SW 8.1 mph - N/A   Clear
6:55 PM 50.0 °F - 35.6 °F 58% 29.85 in 10.0 mi SW 5.8 mph - N/A   Clear
7:15 PM 50.0 °F - 35.6 °F 58% 29.86 in 10.0 mi WSW 6.9 mph - N/A   Clear
7:35 PM 48.2 °F - 35.6 °F 62% 29.87 in 10.0 mi SW 6.9 mph - N/A   Clear
7:55 PM 48.2 °F - 35.6 °F 62% 29.87 in 10.0 mi WSW 5.8 mph - N/A   Clear
8:15 PM 48.2 °F - 35.6 °F 62% 29.89 in 10.0 mi WSW 5.8 mph - N/A   Scattered Clouds
8:35 PM 50.0 °F - 33.8 °F 54% 29.89 in 10.0 mi WSW 5.8 mph - N/A   Mostly Cloudy
8:55 PM 48.2 °F - 33.8 °F 58% 29.89 in 10.0 mi WSW 5.8 mph - N/A   Overcast
9:15 PM 48.2 °F - 33.8 °F 58% 29.90 in 10.0 mi WSW 6.9 mph - N/A   Mostly Cloudy
9:35 PM 48.2 °F - 32.0 °F 54% 29.90 in 10.0 mi WSW 6.9 mph - N/A   Scattered Clouds
9:55 PM 48.2 °F - 32.0 °F 54% 29.90 in 10.0 mi WSW 5.8 mph - N/A   Clear
10:15 PM 48.2 °F - 32.0 °F 54% 29.91 in 10.0 mi SW 8.1 mph - N/A   Clear
10:35 PM 48.2 °F - 32.0 °F 54% 29.92 in 10.0 mi SW 8.1 mph - N/A   Clear
10:55 PM 46.4 °F 42.9 °F 32.0 °F 57% 29.93 in 10.0 mi SW 6.9 mph - N/A   Clear
11:15 PM 46.4 °F 43.5 °F 32.0 °F 57% 29.93 in 10.0 mi WSW 5.8 mph - N/A   Scattered Clouds
11:35 PM 44.6 °F 42.2 °F 32.0 °F 61% 29.94 in 10.0 mi WNW 4.6 mph - N/A   Clear
11:55 PM 41.0 °F 39.0 °F 32.0 °F 70% 29.94 in 10.0 mi West 3.5 mph - N/A   Clear